Location: Ca�n Batista
(41.4099°N, 1.7752°E)
Time: 13:54:02
(UTC+00:00)

ARGOS - Pass Details

Date: 03 March 2021
Orbit: 819 x 835 km, 98.4° (Epoch: 21 April)

Event Time Altitude Azimuth Distance (km) Brightness Sun altitude
Rises 19:28:28 0° 184° (S) 3,362 6.3 -20.0°
Reaches altitude 10° 19:30:56 10° 191° (SSW) 2,435 5.6 -20.4°
Maximum altitude 19:36:01 42° 262° (W) 1,178 4.4 -21.3°
Drops below altitude 10° 19:41:10 10° 333° (NNW) 2,455 6.1 -22.3°
Sets 19:43:41 0° 340° (NNW) 3,394 6.8 -22.8°
